Niagara Falls, NY

5:51 PM EST on November 22, 2019 (GMT -0500)
Niagara Falls International

Weather History for KIAG - September, 2019

Change the Weather History Date:

Saturday, September 14, 2019

  Actual Average Record
Temperature  
Mean Temperature 66 °F -  
Max Temperature 72 °F 72 °F 88 °F (1993)
Min Temperature 61 °F 52 °F 39 °F (2014)
Cooling Degree Days 2    
Growing Degree Days 16 (Base 50)    
Moisture  
Dew Point 59 °F    
Average Humidity 80    
Maximum Humidity 93    
Minimum Humidity 57    
Precipitation  
Precipitation 0.58 in - - ()
Sea Level Pressure  
Sea Level Pressure 30.09 in    
Wind  
Wind Speed 15 mph (SW)    
Max Wind Speed 22 mph    
Max Gust Speed 28 mph    
Visibility 8 miles    
Events Rain    
Averages and records for this station are not official NWS values.
T = Trace of Precipitation, MM = Missing Value Source: NWS Daily Summary

Daily Weather History Graph

Daily Weather History Graph

Search for Another Location

Airport or City:

Astronomy

Sep. 14, 2019 Rise Set
Actual Time 6:54 AM EDT 7:28 PM EDT
Civil Twilight 6:25 AM EDT 7:56 PM EDT
Nautical Twilight 5:51 AM EDT 8:30 PM EDT
Astronomical Twilight 5:16 AM EDT 9:05 PM EDT
Moon 8:08 PM EDT (9/14) 7:04 AM EDT (9/14)
Length of Visible Light 13h 31m
Length of Day
12h 33m
Full, 100% of the Moon is Illuminated
Sep 14
Full
Sep 21
Last Quarter
Sep 28
New
Oct 5
First Quarter
Oct 13
Full

Hourly Weather History & Observations

Time (EDT) Temp. Dew Point Humidity Pressure Visibility Wind Dir Wind Speed Gust Speed Precip Events Conditions
12:31 AM 64.0 °F 61.0 °F 90% 30.07 in 2.0 mi SSW 16.1 mph 27.6 mph 0.16 in Rain Heavy Rain
12:41 AM 64.0 °F 61.0 °F 90% 30.06 in 6.0 mi SSW 13.8 mph 24.2 mph 0.17 in Rain Light Rain
12:53 AM 64.0 °F 61.0 °F 90% 30.05 in 8.0 mi South 13.8 mph - 0.18 in Rain Light Rain
1:26 AM 64.0 °F 62.1 °F 93% 30.07 in 2.0 mi South 18.4 mph 25.3 mph 0.14 in Rain Heavy Rain
1:32 AM 64.0 °F 62.1 °F 93% 30.06 in 1.2 mi South 18.4 mph 26.5 mph 0.24 in Rain Heavy Rain
1:38 AM 64.0 °F 62.1 °F 93% 30.07 in 2.0 mi South 20.7 mph 27.6 mph 0.26 in Rain Heavy Rain
1:46 AM 64.0 °F 62.1 °F 93% 30.07 in 5.0 mi South 15.0 mph 27.6 mph 0.28 in Rain Rain
1:53 AM 64.0 °F 62.1 °F 93% 30.06 in 3.0 mi South 13.8 mph 23.0 mph 0.31 in Rain Rain
2:04 AM 64.0 °F 62.1 °F 93% 30.07 in 2.5 mi SSW 13.8 mph - 0.04 in Rain Rain
2:13 AM 64.0 °F 62.1 °F 93% 30.07 in 3.0 mi SSW 11.5 mph - 0.07 in Rain Heavy Rain
2:53 AM 64.0 °F 62.1 °F 93% 30.04 in 10.0 mi South 10.4 mph - 0.09 in   Mostly Cloudy
3:53 AM 64.9 °F 62.1 °F 90% 30.04 in 10.0 mi SSW 12.7 mph - N/A   Mostly Cloudy
4:20 AM 66.0 °F 63.0 °F 90% 30.05 in 10.0 mi SSW 10.4 mph - N/A   Overcast
4:53 AM 66.0 °F 63.0 °F 90% 30.04 in 10.0 mi SSW 12.7 mph - N/A   Mostly Cloudy
5:53 AM 66.0 °F 63.0 °F 90% 30.05 in 10.0 mi SW 12.7 mph - N/A   Overcast
6:53 AM 66.9 °F 63.0 °F 87% 30.07 in 10.0 mi West 17.3 mph - N/A   Mostly Cloudy
7:03 AM 64.0 °F 57.9 °F 80% 30.08 in 10.0 mi WNW 13.8 mph - N/A   Mostly Cloudy
7:13 AM 63.0 °F 57.0 °F 81% 30.09 in 10.0 mi West 10.4 mph - N/A   Mostly Cloudy
7:53 AM 64.0 °F 57.9 °F 80% 30.10 in 10.0 mi West 13.8 mph - N/A   Mostly Cloudy
8:53 AM 64.0 °F 54.0 °F 70% 30.12 in 10.0 mi West 16.1 mph - N/A   Overcast
9:53 AM 66.0 °F 54.0 °F 65% 30.13 in 10.0 mi West 15.0 mph 23.0 mph N/A   Clear
10:53 AM 68.0 °F 53.1 °F 59% 30.13 in 10.0 mi WSW 19.6 mph 27.6 mph N/A   Clear
11:53 AM 70.0 °F 54.0 °F 57% 30.13 in 10.0 mi WSW 20.7 mph 26.5 mph N/A   Partly Cloudy
12:53 PM 69.1 °F 55.0 °F 61% 30.12 in 10.0 mi WSW 16.1 mph 25.3 mph N/A   Mostly Cloudy
1:53 PM 72.0 °F 57.0 °F 59% 30.12 in 10.0 mi SW 21.9 mph 26.5 mph N/A   Overcast
2:53 PM 71.1 °F 57.0 °F 61% 30.11 in 10.0 mi WSW 17.3 mph 27.6 mph N/A   Mostly Cloudy
3:53 PM 71.1 °F 57.0 °F 61% 30.11 in 10.0 mi SW 20.7 mph 25.3 mph N/A   Mostly Cloudy
4:53 PM 71.1 °F 57.0 °F 61% 30.11 in 10.0 mi WSW 15.0 mph 23.0 mph N/A   Partly Cloudy
5:53 PM 70.0 °F 57.0 °F 63% 30.12 in 10.0 mi WSW 16.1 mph 21.9 mph N/A   Partly Cloudy
6:53 PM 68.0 °F 55.9 °F 65% 30.12 in 10.0 mi WSW 16.1 mph - N/A   Clear
7:53 PM 64.9 °F 57.0 °F 75% 30.14 in 10.0 mi SW 12.7 mph - N/A   Clear
8:53 PM 63.0 °F 57.9 °F 84% 30.15 in 10.0 mi SW 10.4 mph - N/A   Clear
9:53 PM 62.1 °F 57.9 °F 86% 30.16 in 10.0 mi WSW 9.2 mph - N/A   Clear
10:53 PM 61.0 °F 57.9 °F 90% 30.17 in 10.0 mi SW 8.1 mph - N/A   Clear
11:53 PM 61.0 °F 57.9 °F 90% 30.17 in 10.0 mi WSW 8.1 mph - N/A   Clear